TimeCST,TemperatureF,Dew PointF,Humidity,Sea Level PressureIn,VisibilityMPH,Wind Direction,Wind SpeedMPH,Gust SpeedMPH,PrecipitationIn,Events,Conditions,WindDirDegrees,DateUTC
12:15 AM,34.3,27.3,76,30.14,10.0,Calm,Calm,-,N/A,,Clear,0,2013-12-01 06:15:00
12:35 AM,34.3,27.1,75,30.13,10.0,NW,3.5,-,N/A,,Clear,320,2013-12-01 06:35:00
12:55 AM,33.8,27.1,77,30.13,10.0,Calm,Calm,-,N/A,,Clear,0,2013-12-01 06:55:00
1:15 AM,32.9,26.6,78,30.13,10.0,NNW,3.5,-,N/A,,Clear,330,2013-12-01 07:15:00
1:35 AM,32.5,26.6,79,30.13,10.0,NW,3.5,-,N/A,,Clear,320,2013-12-01 07:35:00
1:55 AM,31.5,25.9,80,30.14,10.0,NNW,4.6,-,N/A,,Clear,330,2013-12-01 07:55:00
2:15 AM,30.2,25.7,83,30.14,10.0,North,4.6,-,N/A,,Clear,350,2013-12-01 08:15:00
2:35 AM,29.3,25.3,85,30.13,10.0,North,3.5,-,N/A,,Clear,360,2013-12-01 08:35:00
2:55 AM,30.7,26.4,84,30.14,10.0,North,4.6,-,N/A,,Clear,350,2013-12-01 08:55:00
3:15 AM,30.6,26.1,83,30.14,10.0,Calm,Calm,-,N/A,,Clear,0,2013-12-01 09:15:00
3:35 AM,30.2,25.7,83,30.14,10.0,NNW,3.5,-,N/A,,Clear,340,2013-12-01 09:35:00
3:55 AM,29.1,25.2,85,30.13,10.0,Calm,Calm,-,N/A,,Clear,0,2013-12-01 09:55:00
4:15 AM,29.3,25.9,87,30.13,10.0,North,4.6,-,N/A,,Clear,360,2013-12-01 10:15:00
4:35 AM,28.0,24.8,88,30.13,10.0,North,3.5,-,N/A,,Clear,350,2013-12-01 10:35:00
4:55 AM,28.2,24.8,87,30.13,10.0,Calm,Calm,-,N/A,,Clear,0,2013-12-01 10:55:00
5:15 AM,28.8,25.5,88,30.13,10.0,North,3.5,-,N/A,,Clear,10,2013-12-01 11:15:00
5:35 AM,28.8,25.7,88,30.13,10.0,North,3.5,-,N/A,,Clear,10,2013-12-01 11:35:00
5:55 AM,28.6,25.5,88,30.13,10.0,NNE,5.8,-,N/A,,Clear,20,2013-12-01 11:55:00
6:15 AM,28.0,25.0,88,30.13,10.0,North,3.5,-,N/A,,Clear,360,2013-12-01 12:15:00
6:35 AM,28.4,25.2,88,30.13,10.0,North,3.5,-,N/A,,Clear,10,2013-12-01 12:35:00
6:55 AM,28.2,25.0,88,30.14,10.0,NNE,3.5,-,N/A,,Clear,20,2013-12-01 12:55:00
7:15 AM,27.3,24.6,90,30.14,10.0,Calm,Calm,-,N/A,,Clear,0,2013-12-01 13:15:00
7:35 AM,27.0,24.3,90,30.14,7.0,Calm,Calm,-,N/A,,Clear,0,2013-12-01 13:35:00
7:55 AM,27.9,24.8,88,30.14,7.0,NE,3.5,-,N/A,,Clear,50,2013-12-01 13:55:00
8:15 AM,28.4,24.8,86,30.14,7.0,NNE,4.6,-,N/A,,Clear,30,2013-12-01 14:15:00
8:35 AM,29.7,25.7,85,30.15,7.0,North,3.5,-,N/A,,Clear,10,2013-12-01 14:35:00
8:55 AM,31.5,27.0,83,30.15,7.0,NE,4.6,-,N/A,,Clear,40,2013-12-01 14:55:00
9:15 AM,33.1,27.5,80,30.15,10.0,NE,6.9,-,N/A,,Clear,50,2013-12-01 15:15:00
9:35 AM,33.3,26.6,77,30.14,10.0,ENE,4.6,-,N/A,,Clear,60,2013-12-01 15:35:00
9:55 AM,34.7,27.0,73,30.14,10.0,East,3.5,-,N/A,,Clear,80,2013-12-01 15:55:00
10:15 AM,35.8,27.0,70,30.13,10.0,Calm,Calm,-,N/A,,Clear,0,2013-12-01 16:15:00
10:35 AM,36.9,27.0,67,30.13,10.0,Calm,Calm,-,N/A,,Clear,0,2013-12-01 16:35:00
10:55 AM,38.8,26.8,62,30.12,10.0,ESE,4.6,-,N/A,,Clear,110,2013-12-01 16:55:00
11:15 AM,40.8,27.3,59,30.11,10.0,ESE,3.5,-,N/A,,Clear,120,2013-12-01 17:15:00
11:35 AM,41.9,27.5,57,30.09,10.0,Calm,Calm,-,N/A,,Clear,0,2013-12-01 17:35:00
11:55 AM,43.5,27.9,54,30.08,10.0,East,3.5,-,N/A,,Clear,90,2013-12-01 17:55:00
12:15 PM,43.7,27.5,53,30.07,10.0,ESE,4.6,-,N/A,,Clear,110,2013-12-01 18:15:00
12:35 PM,45.0,27.5,50,30.07,10.0,Calm,Calm,-,N/A,,Clear,0,2013-12-01 18:35:00
12:55 PM,46.2,27.1,47,30.06,10.0,Calm,Calm,-,N/A,,Clear,0,2013-12-01 18:55:00
1:15 PM,47.1,27.0,46,30.05,10.0,Calm,Calm,-,N/A,,Clear,0,2013-12-01 19:15:00
1:35 PM,48.2,26.6,43,30.04,10.0,SSE,4.6,-,N/A,,Clear,150,2013-12-01 19:35:00
1:55 PM,48.2,26.4,43,30.02,10.0,ESE,3.5,-,N/A,,Clear,110,2013-12-01 19:55:00
2:15 PM,48.6,26.2,42,30.02,10.0,Calm,Calm,-,N/A,,Clear,0,2013-12-01 20:15:00
2:35 PM,49.1,25.9,40,30.01,10.0,Calm,Calm,-,N/A,,Clear,0,2013-12-01 20:35:00
2:55 PM,48.7,25.7,41,30.00,10.0,Calm,Calm,-,N/A,,Clear,0,2013-12-01 20:55:00
3:15 PM,49.1,25.2,39,29.99,10.0,Calm,Calm,-,N/A,,Clear,0,2013-12-01 21:15:00
3:35 PM,48.0,25.3,41,29.98,10.0,Calm,Calm,-,N/A,,Clear,0,2013-12-01 21:35:00
3:55 PM,47.5,25.7,43,29.98,10.0,Calm,Calm,-,N/A,,Clear,0,2013-12-01 21:55:00
4:15 PM,47.5,26.2,44,29.96,10.0,SE,3.5,-,N/A,,Scattered Clouds,130,2013-12-01 22:15:00
4:35 PM,46.4,26.4,46,29.96,10.0,Calm,Calm,-,N/A,,Scattered Clouds,0,2013-12-01 22:35:00
4:55 PM,43.9,26.2,50,29.97,10.0,Calm,Calm,-,N/A,,Scattered Clouds,0,2013-12-01 22:55:00
5:15 PM,45.1,26.6,48,29.97,10.0,Calm,Calm,-,N/A,,Mostly Cloudy,0,2013-12-01 23:15:00
5:35 PM,44.1,26.4,50,29.96,10.0,Calm,Calm,-,N/A,,Overcast,0,2013-12-01 23:35:00
5:55 PM,44.2,26.6,50,29.96,10.0,Calm,Calm,-,N/A,,Mostly Cloudy,0,2013-12-01 23:55:00
6:15 PM,43.0,26.6,52,29.95,10.0,ESE,5.8,-,N/A,,Mostly Cloudy,120,2013-12-02 00:15:00
6:35 PM,40.1,26.8,59,29.95,10.0,Calm,Calm,-,N/A,,Mostly Cloudy,0,2013-12-02 00:35:00
6:55 PM,41.9,27.1,56,29.94,10.0,SE,4.6,-,N/A,,Mostly Cloudy,140,2013-12-02 00:55:00
7:15 PM,42.3,27.0,55,29.94,10.0,Calm,Calm,-,N/A,,Overcast,0,2013-12-02 01:15:00
7:35 PM,41.9,26.6,55,29.92,10.0,SE,4.6,-,N/A,,Overcast,130,2013-12-02 01:35:00
7:55 PM,40.1,26.6,59,29.91,10.0,SE,5.8,-,N/A,,Scattered Clouds,140,2013-12-02 01:55:00
8:15 PM,39.7,26.6,59,29.91,10.0,Calm,Calm,-,N/A,,Clear,0,2013-12-02 02:15:00
8:35 PM,38.7,26.6,62,29.91,10.0,Calm,Calm,-,N/A,,Clear,0,2013-12-02 02:35:00
8:55 PM,39.7,26.6,59,29.91,10.0,ESE,3.5,-,N/A,,Clear,120,2013-12-02 02:55:00
9:15 PM,38.5,26.8,63,29.90,10.0,East,5.8,-,N/A,,Clear,100,2013-12-02 03:15:00
9:35 PM,37.4,26.4,65,29.90,10.0,East,4.6,-,N/A,,Clear,80,2013-12-02 03:35:00
9:55 PM,36.9,26.4,66,29.90,10.0,East,5.8,-,N/A,,Clear,100,2013-12-02 03:55:00
10:15 PM,35.8,26.2,68,29.89,10.0,East,4.6,-,N/A,,Clear,100,2013-12-02 04:15:00
10:35 PM,35.8,26.4,69,29.88,10.0,East,5.8,-,N/A,,Clear,100,2013-12-02 04:35:00
10:55 PM,34.0,26.1,73,29.87,10.0,East,6.9,-,N/A,,Clear,100,2013-12-02 04:55:00
11:15 PM,32.9,25.7,75,29.87,10.0,ESE,5.8,-,N/A,,Clear,120,2013-12-02 05:15:00
11:35 PM,34.7,27.0,73,29.86,10.0,ESE,5.8,-,N/A,,Clear,110,2013-12-02 05:35:00
11:55 PM,33.8,26.4,74,29.86,10.0,ESE,5.8,-,N/A,,Clear,120,2013-12-02 05:55:00